Weather History for South Bend, IN

Change the Weather History Date:

Friday, October 7, 2011

  Actual Average Record
Temperature  
Mean Temperature 67 °F 55 °F  
Max Temperature 84 °F 65 °F 88 °F (2007)
Min Temperature 50 °F 45 °F 25 °F (1935)
Degree Days  
Heating Degree Days 0 10  
Month to date heating degree days 57 65  
Since 1 July heating degree days 214 199  
Cooling Degree Days 2 1  
Month to date cooling degree days 3 7  
Year to date cooling degree days 961 771  
Growing Degree Days 17 (Base 50)    
Moisture  
Dew Point 52 °F    
Average Humidity 61    
Maximum Humidity 89    
Minimum Humidity 33    
Precipitation  
Precipitation 0.00 in 0.11 in 1.64 in (1984)
Month to date precipitation 0.00 0.78  
Year to date precipitation 35.83 29.58  
Snow  
Snow 0.00 in 0.00 in T in (2000)
Month to date snowfall 0.0 0.0  
Since 1 July snowfall 0.0 T  
Since 1 September snowfall T  
Snow Depth 0.00 in    
Sea Level Pressure  
Sea Level Pressure 30.31 in    
Wind  
Wind Speed 7 mph (SE)    
Max Wind Speed 16 mph    
Max Gust Speed 20 mph    
Visibility 10 miles    
Events      
T = Trace of Precipitation, MM = Missing Value Source: NWS Daily Summary

Daily Weather History Graph

Daily Weather History Graph

Search for Another Location

Airport:

Trip Planner

Search our weather history database for the weather conditions in past years. The results will help you decide how hot, cold, wet, or windy it might be!

Date:

Astronomy

Oct. 07, 2011 Rise Set
Actual Time 7:48 AM EDT 7:17 PM EDT
Civil Twilight 7:20 AM EDT 7:45 PM EDT
Nautical Twilight 6:48 AM EDT 8:17 PM EDT
Astronomical Twilight 6:15 AM EDT 8:49 PM EDT
Moon 5:02 PM EDT (10/7) 3:33 AM EDT (10/7)
Length of Visible Light 12h 24m
Length of Day
11h 29m
Waxing Gibbous, 83% of the Moon is Illuminated
Oct 7
Waxing Gibbous
Oct 11
Full
Oct 19
Last Quarter
Oct 26
New
Nov 2
First Quarter

Hourly Weather History & Observations

Time (EDT) Temp. Heat Index Dew Point Humidity Pressure Visibility Wind Dir Wind Speed Gust Speed Precip Events Conditions
12:54 AM 64.0 °F - 51.1 °F 63% 30.28 in 10.0 mi SE 6.9 mph - N/A   Clear
1:54 AM 63.0 °F - 52.0 °F 67% 30.28 in 10.0 mi SE 8.1 mph - N/A   Clear
2:54 AM 62.1 °F - 51.1 °F 67% 30.28 in 10.0 mi SE 6.9 mph - N/A   Clear
3:54 AM 60.8 °F - 51.8 °F 72% 30.29 in 10.0 mi SSE 5.8 mph - N/A   Clear
4:54 AM 60.1 °F - 51.1 °F 72% 30.29 in 10.0 mi SE 6.9 mph - N/A   Clear
5:54 AM 57.9 °F - 50.0 °F 75% 30.31 in 10.0 mi Calm Calm - N/A   Clear
6:54 AM 55.4 °F - 50.0 °F 82% 30.33 in 10.0 mi East 3.5 mph - N/A   Clear
7:54 AM 52.0 °F - 48.9 °F 89% 30.36 in 6.0 mi Calm Calm - N/A   Clear
8:54 AM 57.0 °F - 52.0 °F 83% 30.38 in 7.0 mi East 5.8 mph - N/A   Clear
9:54 AM 63.0 °F - 53.1 °F 70% 30.38 in 10.0 mi SE 4.6 mph - N/A   Clear
10:54 AM 70.0 °F - 53.1 °F 55% 30.37 in 10.0 mi SSE 4.6 mph - N/A   Clear
11:54 AM 73.9 °F - 53.1 °F 48% 30.37 in 10.0 mi SE 5.8 mph - N/A   Clear
12:54 PM 78.1 °F - 54.0 °F 43% 30.35 in 10.0 mi SSE 4.6 mph - N/A   Clear
1:54 PM 81.0 °F 80.4 °F 53.1 °F 38% 30.32 in 10.0 mi ESE 5.8 mph - N/A   Clear
2:54 PM 82.0 °F - 52.0 °F 35% 30.30 in 10.0 mi SSE 11.5 mph - N/A   Clear
3:54 PM 82.4 °F - 51.8 °F 35% 30.29 in 10.0 mi South 12.7 mph - N/A   Clear
4:54 PM 82.4 °F - 50.0 °F 32% 30.29 in 10.0 mi SE 13.8 mph 18.4 mph N/A   Clear
5:54 PM 81.0 °F - 51.1 °F 35% 30.27 in 10.0 mi SE 10.4 mph - N/A   Clear
6:54 PM 79.0 °F - 51.1 °F 38% 30.28 in 10.0 mi SE 6.9 mph - N/A   Clear
7:54 PM 75.2 °F - 51.8 °F 44% 30.30 in 10.0 mi ESE 9.2 mph - N/A   Clear
8:54 PM 72.0 °F - 51.1 °F 48% 30.30 in 10.0 mi ESE 10.4 mph - N/A   Clear
9:54 PM 69.8 °F - 51.8 °F 53% 30.32 in 10.0 mi SE 8.1 mph - N/A   Clear
10:54 PM 69.1 °F - 51.1 °F 53% 30.31 in 10.0 mi SE 8.1 mph - N/A   Clear
11:54 PM 68.0 °F - 51.1 °F 55% 30.31 in 10.0 mi SSE 8.1 mph - N/A   Clear